Orbital Elements at Epoch 2459200.5 (2020-Dec-17.0) TDB
Reference: JPL 18 (heliocentric ecliptic J2000)
Element | Value | Uncertainty (1-sigma) | Units |
e | .05435847716991667 | 4.4674e-08 | |
a | 2.968217969900499 | 2.4123e-08 | au |
q | 2.806870161148326 | 1.3028e-07 | au |
i | 1.162864737216105 | 5.3542e-06 | deg |
node | 40.42453125295816 | 0.00024362 | deg |
peri | 302.70453764 | 0.00024881 | deg |
M | 143.0455598505629 | 5.1937e-05 | deg |
tp | 2458458.311889400936 (2018-Dec-05.81188940) | 0.00026773 | TDB |
period | 1867.850495288279 5.11 | 2.277e-05 6.234e-08 | d yr |
n | .1927349115510653 | 2.3495e-09 | deg/d |
Q | 3.129565778652672 | 2.5434e-08 | au |
|
| | Orbit Determination Parameters
Additional Information
|